This is the latest recevied weather packets stored in our database for station/object CW2401. If no packets are shown the sender has not sent any weather packets the latest 10 day(s).
| Time | Temp. | Humidity | Pressure | Rain* | Wind** | Luminosity | Snow |
|---|---|---|---|---|---|---|---|
| 1777742798 | 14.44° C | 73% | 1013.6 hPa | 0 mm | - | - | - |
| 1777742079 | 13.89° C | 75% | 1013.7 hPa | 0 mm | - | - | - |
| 1777741480 | 13.89° C | 76% | 1013.9 hPa | 0 mm | - | - | - |
| 1777741360 | 13.89° C | 78% | 1013.9 hPa | 0 mm | - | - | - |
| 1777741238 | 13.89° C | 77% | 1014 hPa | 0 mm | - | - | - |
| 1777738225 | 13.33° C | 81% | 1015.2 hPa | 0 mm | - | - | - |
| 1777737134 | 13.33° C | 83% | 1014.9 hPa | 0 mm | - | - | - |
| 1777736774 | 13.33° C | 83% | 1015.1 hPa | 0 mm | - | - | - |
| 1777735197 | 13.33° C | 80% | 1014.4 hPa | 0 mm | - | - | - |
| 1777734954 | 13.33° C | 80% | 1014.5 hPa | 0 mm | - | - | - |
| 1777734470 | 13.33° C | 81% | 1014.7 hPa | 0 mm | - | - | - |
| 1777734106 | 13.33° C | 81% | 1014.9 hPa | 0 mm | - | - | - |
| 1777732413 | 12.78° C | 80% | 1015.1 hPa | 0 mm | - | - | - |
| 1777731690 | 12.78° C | 79% | 1014.8 hPa | 0 mm | - | - | - |
| 1777731445 | 12.78° C | 78% | 1014.8 hPa | 0 mm | - | - | - |
| 1777731082 | 12.78° C | 80% | 1014.6 hPa | 0 mm | - | - | - |
| 1777730844 | 12.78° C | 80% | 1014.7 hPa | 0 mm | - | - | - |
| 1777730720 | 12.78° C | 79% | 1014.7 hPa | 0 mm | - | - | - |
| 1777729034 | 12.22° C | 81% | 1014.3 hPa | 0 mm | - | - | - |
| 1777728672 | 12.22° C | 83% | 1014.6 hPa | 0 mm | - | - | - |
| 1777727220 | 12.22° C | 80% | 1014 hPa | 0 mm | - | - | - |
| 1777724073 | 11.67° C | 84% | 1013.9 hPa | 0 mm | - | - | - |
| 1777720705 | 11.67° C | 88% | 1013.7 hPa | 0 mm | - | - | - |
| 1777719738 | 11.67° C | 88% | 1013.8 hPa | 0 mm | - | - | - |
| 1777719619 | 11.67° C | 89% | 1013.9 hPa | 0 mm | - | - | - |
* Rain latest hour (hover to see other rain measurements)
** Current wind speed in m/s (hover to see current wind gust speed)